Date String (YYYY-MM-DD hh:mm:ss) UTC,Instrument flags,Ambient pressure (hPa),Sample flow (lpm),Bypass flow (lpm),Sample temperature (°C),Ambient temperature (°C),ASC tube jacket temperature (°C),LED temperature (°C),Box temperature (°C),Sample RH (%),Span deviation,Mass concentration (μg/m³),Mass concentration (μg/m³),Mass concentration (μg/m³)
DateTimeUTC,F1_M11,P_M11,Q1_M11,Q2_M11,T1_M11,T2_M11,T3_M11,T4_M11,T5_M11,U1_M11,ZSPAN_M11,X0_M11,X2_M11,X1_M11
2023-02-10 23:00:00,,0829.3,4.96,0.00,23.6,22.4,00.0,32.4,25.5,08.8,0000.0,0020.31,0005.64,0003.83
2023-02-10 23:01:00,,0829.3,4.96,0.00,23.6,22.4,00.0,32.4,25.5,09.0,0000.0,0020.40,0005.60,0003.83
2023-02-10 23:02:00,,0829.3,4.99,0.00,23.6,22.4,00.0,32.4,25.5,08.9,0000.0,0019.89,0005.56,0003.82
2023-02-10 23:03:00,,0829.4,5.01,0.00,23.6,22.4,00.0,32.4,25.5,08.9,0000.0,0019.70,0005.48,0003.80
2023-02-10 23:04:00,,0829.3,5.05,0.00,23.6,22.4,00.0,32.4,25.5,09.0,0000.0,0021.38,0005.40,0003.79
2023-02-10 23:05:00,,0829.4,4.96,0.00,23.7,22.4,00.0,32.4,25.5,08.9,0000.0,0020.68,0005.44,0003.79
2023-02-10 23:06:00,,0829.4,4.95,0.00,23.7,22.4,00.0,32.4,25.5,09.0,0000.0,0019.19,0005.44,0003.78
2023-02-10 23:07:00,,0829.4,4.97,0.00,23.7,22.4,00.0,32.4,25.5,09.1,0000.0,0019.08,0005.46,0003.77
2023-02-10 23:08:00,,0829.4,5.02,0.00,23.7,22.4,00.0,32.4,25.5,09.1,0000.0,0017.69,0005.37,0003.76
2023-02-10 23:09:00,,0829.4,4.97,0.00,23.7,22.4,00.0,32.5,25.5,09.0,0000.0,0017.21,0005.32,0003.76
2023-02-10 23:10:00,,0829.3,4.96,0.00,23.7,22.4,00.0,32.5,25.5,09.0,0000.0,0016.85,0005.29,0003.75
2023-02-10 23:11:00,,0829.4,5.01,0.00,23.7,22.5,00.0,32.5,25.5,09.1,0000.0,0017.46,0005.20,0003.74
2023-02-10 23:12:00,,0829.4,5.03,0.00,23.7,22.5,00.0,32.5,25.5,09.3,0000.0,0017.02,0005.16,0003.73
2023-02-10 23:13:00,,0829.5,5.02,0.00,23.7,22.5,00.0,32.5,25.5,09.3,0000.0,0017.33,0005.14,0003.73
2023-02-10 23:14:00,,0829.5,5.03,0.00,23.7,22.5,00.0,32.5,25.5,09.3,0000.0,0017.56,0005.19,0003.74
2023-02-10 23:15:00,,0829.5,4.97,0.00,23.7,22.5,00.0,32.5,25.5,09.1,0000.0,0015.61,0005.22,0003.75
2023-02-10 23:16:00,,0829.5,4.99,0.00,23.7,22.5,00.0,32.5,25.5,09.1,0000.0,0016.02,0005.15,0003.75
2023-02-10 23:17:00,,0829.4,5.04,0.00,23.7,22.5,00.0,32.5,25.5,09.1,0000.0,0015.91,0005.10,0003.76
2023-02-10 23:18:00,,0829.4,5.01,0.00,23.7,22.5,00.0,32.5,25.6,09.1,0000.0,0015.90,0005.08,0003.77
2023-02-10 23:19:00,,0829.5,4.99,0.00,23.7,22.5,00.0,32.5,25.6,09.1,0000.0,0016.43,0005.14,0003.78
2023-02-10 23:20:00,,0829.5,4.97,0.00,23.7,22.5,00.0,32.5,25.6,09.1,0000.0,0015.58,0005.15,0003.79
2023-02-10 23:21:00,,0829.5,4.99,0.00,23.7,22.5,00.0,32.5,25.6,09.1,0000.0,0014.94,0005.10,0003.80
2023-02-10 23:22:00,,0829.5,4.99,0.00,23.8,22.5,00.0,32.5,25.6,09.0,0000.0,0014.89,0005.16,0003.81
2023-02-10 23:23:00,,0829.5,4.97,0.00,23.8,22.5,00.0,32.5,25.6,08.9,0000.0,0015.48,0005.22,0003.82
2023-02-10 23:24:00,,0829.5,5.00,0.00,23.8,22.5,00.0,32.5,25.6,08.8,0000.0,0015.24,0005.18,0003.82
2023-02-10 23:25:00,,0829.5,4.99,0.00,23.8,22.5,00.0,32.6,25.6,08.9,0000.0,0015.01,0005.12,0003.82
2023-02-10 23:26:00,,0829.5,5.02,0.00,23.8,22.5,00.0,32.6,25.6,08.8,0000.0,0015.17,0005.08,0003.82
2023-02-10 23:27:00,,0829.5,4.99,0.00,23.8,22.5,00.0,32.6,25.6,08.8,0000.0,0014.78,0005.07,0003.82
2023-02-10 23:28:00,,0829.5,4.98,0.00,23.8,22.5,00.0,32.6,25.6,08.9,0000.0,0015.70,0005.07,0003.83
2023-02-10 23:29:00,,0829.5,4.97,0.00,23.8,22.5,00.0,32.6,25.6,08.7,0000.0,0016.81,0005.05,0003.82
2023-02-10 23:30:00,,0829.5,4.99,0.00,23.8,22.5,00.0,32.6,25.6,08.7,0000.0,0016.30,0005.06,0003.82
2023-02-10 23:31:00,,0829.5,5.01,0.00,23.8,22.5,00.0,32.6,25.6,08.7,0000.0,0017.45,0005.06,0003.81
2023-02-10 23:32:00,,0829.5,5.01,0.00,23.8,22.6,00.0,32.6,25.6,08.6,0000.0,0019.33,0005.10,0003.80
2023-02-10 23:33:00,,0829.6,4.98,0.00,23.8,22.6,00.0,32.6,25.7,08.7,0000.0,0019.31,0005.12,0003.80
2023-02-10 23:34:00,,0829.6,5.02,0.00,23.8,22.6,00.0,32.6,25.7,08.7,0000.0,0019.18,0005.05,0003.79
2023-02-10 23:35:00,,0829.6,4.99,0.00,23.8,22.6,00.0,32.6,25.6,08.7,0000.0,0019.25,0005.07,0003.79
2023-02-10 23:36:00,,0829.6,4.98,0.00,23.8,22.6,00.0,32.6,25.7,08.6,0000.0,0019.11,0005.10,0003.79
2023-02-10 23:37:00,,0829.6,4.97,0.00,23.8,22.6,00.0,32.6,25.7,08.5,0000.0,0019.26,0005.12,0003.80
2023-02-10 23:38:00,,0829.5,5.00,0.00,23.8,22.6,00.0,32.6,25.7,08.6,0000.0,0018.99,0005.13,0003.80
2023-02-10 23:39:00,,0829.6,4.92,0.00,23.8,22.6,00.0,32.6,25.7,08.5,0000.0,0018.24,0005.15,0003.79
2023-02-10 23:40:00,,0829.6,4.96,0.00,23.8,22.6,00.0,32.6,25.7,08.5,0000.0,0017.53,0005.15,0003.78
2023-02-10 23:41:00,,0829.6,5.00,0.00,23.9,22.6,00.0,32.6,25.7,08.6,0000.0,0017.93,0005.12,0003.78
2023-02-10 23:42:00,,0829.5,5.03,0.00,23.9,22.6,00.0,32.6,25.7,08.6,0000.0,0017.51,0005.11,0003.79
2023-02-10 23:43:00,,0829.6,5.01,0.00,23.9,22.6,00.0,32.6,25.7,08.6,0000.0,0015.72,0005.07,0003.79
2023-02-10 23:44:00,,0829.6,5.02,0.00,23.9,22.6,00.0,32.6,25.7,08.7,0000.0,0014.95,0005.04,0003.79
2023-02-10 23:45:00,,0829.6,4.97,0.00,23.9,22.6,00.0,32.7,25.7,08.6,0000.0,0014.79,0005.05,0003.79
2023-02-10 23:46:00,,0829.6,4.98,0.00,23.9,22.6,00.0,32.7,25.7,08.6,0000.0,0014.62,0005.05,0003.78
2023-02-10 23:47:00,,0829.6,5.02,0.00,23.9,22.6,00.0,32.7,25.7,08.5,0000.0,0015.31,0005.05,0003.78
2023-02-10 23:48:00,,0829.6,4.98,0.00,23.9,22.7,00.0,32.7,25.7,08.5,0000.0,0015.35,0005.07,0003.78
2023-02-10 23:49:00,,0829.6,4.99,0.00,23.9,22.6,00.0,32.7,25.7,08.5,0000.0,0015.53,0005.06,0003.78
2023-02-10 23:50:00,,0829.6,4.98,0.00,23.9,22.6,00.0,32.7,25.7,08.6,0000.0,0015.96,0005.01,0003.78
2023-02-10 23:51:00,,0829.5,4.99,0.00,23.9,22.6,00.0,32.7,25.7,08.5,0000.0,0016.22,0005.03,0003.81
2023-02-10 23:52:00,,0829.5,4.97,0.00,23.9,22.7,00.0,32.7,25.7,08.4,0000.0,0016.12,0005.02,0003.81
2023-02-10 23:53:00,,0829.6,4.94,0.00,23.9,22.7,00.0,32.7,25.7,08.3,0000.0,0015.98,0005.05,0003.81
2023-02-10 23:54:00,,0829.6,4.98,0.00,23.9,22.6,00.0,32.7,25.7,08.4,0000.0,0015.99,0005.06,0003.81
2023-02-10 23:55:00,,0829.6,5.03,0.00,23.9,22.7,00.0,32.7,25.7,08.3,0000.0,0016.34,0005.05,0003.81
2023-02-10 23:56:00,,0829.6,5.01,0.00,23.9,22.7,00.0,32.7,25.7,08.3,0000.0,0016.22,0005.04,0003.82
2023-02-10 23:57:00,,0829.6,5.01,0.00,23.9,22.7,00.0,32.7,25.8,08.3,0000.0,0015.66,0005.01,0003.82
2023-02-10 23:58:00,,0829.6,5.02,0.00,23.9,22.7,00.0,32.7,25.8,08.3,0000.0,0014.88,0005.01,0003.82
2023-02-10 23:59:00,,0829.5,5.01,0.00,23.9,22.7,00.0,32.7,25.8,08.4,0000.0,0014.73,0005.00,0003.81
